SL-14 DEB, 47084

Orbit data source: Space-Track

SL-14 DEB, 47084 is space debris in LEO originally from a launch on Thu, 15 Aug 1991 UTC launched from the Plesetsk Missile And Space Complex (PKMTR). Debris objects in space refer to the collection of defunct objects orbiting the Earth. Examples of debris include non-operational satellites, rocket bodies, and fragments generated from explosions, collisions, or faulty payload assembly.

Loading next visibility...
Identifier
47084, 1991-056DJ
Orbit
LEO
Country
Flag of CISCIS
Related business
Manufacturer
Unknown
Mission
Spacecraft
Bus & Motor
Unknown
Mass
Unknown
Launch date (UTC)
1991-08-15 (35 years ago)
Launch vehicle
Unknown
Launch site
Plesetsk Missile And Space Complex (PKMTR)
Object type
Payload
Rocket body
Debris
Shape & HBR
Unknown shape, 1.1 m
Radar Cross Section
Medium (>0.1 m² and <1 m²)

Expand to show TLE details & history
Last TLE update: 4 days ago

TLE from 4 days ago
0 SL-14 DEB
1 47084U 91056DJ  26253.99627467  .00010743  00000-0  16328-1 0  9998
2 47084  82.6272 102.8586 0151039  92.0321 269.8123 13.47615109119209
Epoch: 2026-09-10T23:54Z
TLE epoch observation values (Epoch: 2026-09-10T23:54:38.131Z)
Latitude
-0.00004°
Longitude
114.17374°
Altitude
1,085.971 km
Speed
7.308 km/s
True Right ascension
06h 51m 26s
True Declination
0° 00' 00"
Sunlit
Object was in daylight at epoch
Visualization orbit readout
Latitude
Unknown
Longitude
Unknown
Altitude
Unknown
Speed
Unknown
Apparent Right ascension
Unknown
Apparent Declination
Unknown
Sunlit
N/A
Visualization observer readout
Local Sidereal Time
13:39:33
Azimuth
Unknown
Elevation
Unknown
Doppler factor
Unknown
Orbital elements
Apogee altitude
1,190.864 km
Perigee altitude
965.624 km
Semi-major axis
7,456.381 km
Eccentricity
0.0151
Inclination
82.6272°
RAAN
102.8586°
Arg. of periapsis
92.0321°
True anomaly
268.0819°
Mean anomaly
269.8123°
Eccentric anomaly
268.94706°
Mean motion
3.37094 °/min
Orbital period
106.8 mins
BSTAR
0.016328
Loading maneuver chart data...
Computing Atmospheric mass density...
Loading historical data...
Loading historical data...
Loading historical data...
Loading historical data...
Loading historical data...
Loading historical data...
Loading historical data...

Documentation

Showing up to 5 results
|